Location: Betra
(48.4113°N, 8.6634°E)
Time: 16:20:31
(UTC+00:00)

IDEFIX/ARIANE 42P - Pass Details

Date: 23 May 2024
Orbit: 783 x 799 km, 98.5° (Epoch: 16 June)

Event Time Altitude Azimuth Distance (km) Brightness Sun altitude
Rises 01:17:28 0° 14° (NNE) 3,317 7.4 -16.3°
Reaches altitude 10° 01:19:49 10° 15° (NNE) 2,384 6.3 -16.1°
Maximum altitude 01:25:06 85° 103° (ESE) 809 2.6 -15.7°
Enters shadow 01:28:31 23° 193° (SSW) 1,661 3.7 -15.4°
